Location: *
(33.6842°N, 117.7925°W)
Time: 06:37:12
(UTC+00:00)

ALOS - Pass Details

Date: 21 October 2019
Orbit: 683 x 686 km, 97.8° (Epoch: 12 November)

Event Time Altitude Azimuth Distance (km) Brightness Sun altitude
Rises 12:43:16 0° 21° (NNE) 3,050 5.9 -16.8°
Reaches altitude 10° 12:45:39 10° 30° (NNE) 2,130 5.2 -16.3°
Maximum altitude 12:49:59 37° 98° (E) 1,049 3.9 -15.4°
Drops below altitude 10° 12:54:17 10° 166° (SSE) 2,118 5.0 -14.5°
Sets 12:56:39 0° 174° (S) 3,029 5.7 -14.0°
